TimeCDT,TemperatureF,Dew PointF,Humidity,Sea Level PressureIn,VisibilityMPH,Wind Direction,Wind SpeedMPH,Gust SpeedMPH,PrecipitationIn,Events,Conditions,WindDirDegrees,DateUTC
12:15 AM,64.4,53.6,68,30.05,10.0,Calm,Calm,-,N/A,,Clear,0,2013-07-05 05:15:00
12:35 AM,64.4,53.6,68,30.06,10.0,Calm,Calm,-,N/A,,Clear,0,2013-07-05 05:35:00
12:55 AM,64.4,53.6,68,30.06,10.0,Calm,Calm,-,N/A,,Clear,0,2013-07-05 05:55:00
1:15 AM,62.6,53.6,72,30.05,10.0,SSE,3.5,-,N/A,,Clear,150,2013-07-05 06:15:00
1:35 AM,64.4,55.4,73,30.05,10.0,SSE,5.8,-,N/A,,Clear,150,2013-07-05 06:35:00
1:55 AM,64.4,55.4,73,30.05,10.0,SE,5.8,-,N/A,,Clear,140,2013-07-05 06:55:00
2:15 AM,64.4,53.6,68,30.05,10.0,SE,5.8,-,N/A,,Clear,140,2013-07-05 07:15:00
2:35 AM,64.4,55.4,73,30.04,10.0,SSE,4.6,-,N/A,,Clear,160,2013-07-05 07:35:00
2:55 AM,66.2,55.4,68,30.04,10.0,South,5.8,-,N/A,,Clear,180,2013-07-05 07:55:00
3:15 AM,64.4,55.4,73,30.04,10.0,South,4.6,-,N/A,,Clear,170,2013-07-05 08:15:00
3:35 AM,66.2,55.4,68,30.04,10.0,South,5.8,-,N/A,,Clear,170,2013-07-05 08:35:00
3:55 AM,66.2,55.4,68,30.05,10.0,South,4.6,-,N/A,,Clear,170,2013-07-05 08:55:00
4:15 AM,64.4,55.4,73,30.04,10.0,Calm,Calm,-,N/A,,Clear,0,2013-07-05 09:15:00
4:35 AM,62.6,55.4,77,30.05,10.0,Calm,Calm,-,N/A,,Clear,0,2013-07-05 09:35:00
4:55 AM,62.6,55.4,77,30.05,10.0,SE,4.6,-,N/A,,Clear,140,2013-07-05 09:55:00
5:15 AM,62.6,55.4,77,30.06,10.0,ESE,3.5,-,N/A,,Clear,110,2013-07-05 10:15:00
5:35 AM,60.8,55.4,82,30.06,10.0,Calm,Calm,-,N/A,,Clear,0,2013-07-05 10:35:00
5:55 AM,59.0,55.4,88,30.06,10.0,Calm,Calm,-,N/A,,Clear,0,2013-07-05 10:55:00
6:15 AM,59.0,55.4,88,30.07,10.0,Calm,Calm,-,N/A,,Clear,0,2013-07-05 11:15:00
6:35 AM,59.0,55.4,88,30.07,10.0,Calm,Calm,-,N/A,,Clear,0,2013-07-05 11:35:00
6:49 AM,60.8,55.4,82,30.07,10.0,Calm,Calm,-,N/A,,Mostly Cloudy,0,2013-07-05 11:49:00
7:48 AM,66.2,57.2,73,30.08,10.0,Calm,Calm,-,N/A,,Mostly Cloudy,0,2013-07-05 12:48:00
8:48 AM,69.8,57.2,64,30.10,10.0,Calm,Calm,-,N/A,,Clear,0,2013-07-05 13:48:00
9:48 AM,75.2,57.2,53,30.09,10.0,Calm,Calm,-,N/A,,Clear,0,2013-07-05 14:48:00
10:45 AM,80.6,55.4,42,30.09,10.0,Calm,Calm,-,N/A,,Clear,0,2013-07-05 15:45:00
11:50 AM,82.4,55.4,39,30.08,10.0,ESE,5.8,-,N/A,,Scattered Clouds,120,2013-07-05 16:50:00
12:45 PM,84.2,55.4,37,30.07,10.0,South,4.6,-,N/A,,Mostly Cloudy,190,2013-07-05 17:45:00
1:45 PM,84.2,53.6,35,30.06,10.0,SE,5.8,-,N/A,,Scattered Clouds,130,2013-07-05 18:45:00
2:51 PM,80.6,60.8,51,30.04,2.0,SE,15.0,28.8,N/A,Rain-Hail,Rain,130,2013-07-05 19:51:00
3:18 PM,71.6,60.8,69,30.05,10.0,ESE,16.1,-,N/A,,Mostly Cloudy,110,2013-07-05 20:18:00
3:49 PM,77.0,66.2,69,30.04,10.0,East,9.2,-,N/A,,Mostly Cloudy,100,2013-07-05 20:49:00
4:50 PM,82.4,57.2,42,30.03,10.0,ESE,9.2,-,N/A,,Scattered Clouds,110,2013-07-05 21:50:00
5:50 PM,84.2,57.2,40,30.00,10.0,ESE,8.1,-,N/A,,Partly Cloudy,120,2013-07-05 22:50:00
6:50 PM,82.4,57.2,42,30.00,10.0,South,9.2,-,N/A,,Scattered Clouds,180,2013-07-05 23:50:00
7:45 PM,80.6,57.2,45,30.00,10.0,South,4.6,-,N/A,,Partly Cloudy,180,2013-07-06 00:45:00
8:45 PM,75.2,59.0,57,30.00,10.0,SSE,4.6,-,N/A,,Partly Cloudy,150,2013-07-06 01:45:00
8:55 PM,75.2,59.0,57,30.00,10.0,SE,5.8,-,N/A,,Clear,140,2013-07-06 01:55:00
9:15 PM,73.4,59.0,61,30.00,10.0,SE,6.9,-,N/A,,Clear,140,2013-07-06 02:15:00
9:35 PM,73.4,59.0,61,30.01,10.0,SE,6.9,-,N/A,,Clear,130,2013-07-06 02:35:00
9:55 PM,71.6,60.8,69,30.02,10.0,SE,5.8,-,N/A,,Clear,140,2013-07-06 02:55:00
10:15 PM,73.4,59.0,61,30.01,10.0,SE,8.1,-,N/A,,Clear,140,2013-07-06 03:15:00
10:35 PM,73.4,59.0,61,30.02,10.0,ESE,8.1,-,N/A,,Clear,120,2013-07-06 03:35:00
10:55 PM,71.6,59.0,64,30.03,10.0,ESE,8.1,-,N/A,,Clear,120,2013-07-06 03:55:00
11:15 PM,71.6,59.0,64,30.03,10.0,SE,10.4,-,N/A,,Clear,140,2013-07-06 04:15:00
11:35 PM,71.6,59.0,64,30.03,10.0,SE,10.4,-,N/A,,Clear,140,2013-07-06 04:35:00
11:55 PM,71.6,60.8,69,30.03,10.0,SE,8.1,-,N/A,,Clear,130,2013-07-06 04:55:00